Winter Park, USA 16 day weather forecast

Slopes altitude range 2745 m - 3675m

Number of lifts: 22 Pistes: 143km

In some cases the lift and piste totals shown are for the ski domain (e.g. Three Valleys) rather than individual resort (e.g. Courchevel)

Overview

The 16 day weather forecast is fully updated 4 times every day.

    • Sun 23 SEP 2018
    • Sun 23
    • 7C 8C
    • Mon 24 SEP 2018
    • Mon 24
    • 6C 10C
    • Tue 25 SEP 2018
    • Tue 25
    • 3C 6C
    • Wed 26 SEP 2018
    • Wed 26
    • 0C 2C
    • Thu 27 SEP 2018
    • Thu 27
    • 2C 4C
    • Fri 28 SEP 2018
    • Fri 28
    • 3C 4C
    • Sat 29 SEP 2018
    • Sat 29
    • 6C 8C
    • Sun 30 SEP 2018
    • Sun 30
    • 13C 15C
    • Mon 01 OCT 2018
    • Mon 01
    • 13C 20C
    • Tue 02 OCT 2018
    • Tue 02
    • 11C 15C
    • Wed 03 OCT 2018
    • Wed 03
    • 7C 16C
    • Thu 04 OCT 2018
    • Thu 04
    • 12C 15C
    • Fri 05 OCT 2018
    • Fri 05
    • 10C 19C
    • Sat 06 OCT 2018
    • Sat 06
    • 11C 21C
    • Sun 07 OCT 2018
    • Sun 07
    • 11C 20C
    • Mon 08 OCT 2018
    • Mon 08
    • 12C 23C

Date:

Time Type 0°C level Temp Chill Snow Cloud Speed Gust Dir Press
3:00 4527m 9°C 9_7 0cm 0% 7mph 8mph 1018mB
6:00 4497m 8°C 8_8 0cm 0% 8mph 9mph 1018mB
9:00 4488m 7°C 7_9 0cm 0% 9mph 12mph 1018mB
12:00 4450m 8°C 8_9 0cm 0% 9mph 13mph 1018mB
15:00 4450m 14°C 14_8 0cm 0% 8mph 14mph 1017mB
18:00 4484m 19°C 19_8 0cm 0% 8mph 13mph 1013mB
21:00 4636m 19°C 19_9 0cm 6% 9mph 14mph 1010mB
0:00 4594m 17°C 17_7 0cm 9% 7mph 13mph 1009mB
3:00 4591m 10°C 10_10 0cm 1% 10mph 24mph 1011mB
6:00 4559m 10°C 10_10 0cm 44% 10mph 23mph 1012mB
9:00 4498m 9°C 9_11 0cm 31% 11mph 32mph 1013mB
12:00 4154m 10°C 10_6 0cm 32% 6mph 7mph 1014mB
15:00 3990m 11°C 11_8 0cm 34% 8mph 19mph 1014mB
18:00 4187m 16°C 16_16 0cm 21% 16mph 26mph 1012mB
21:00 4312m 16°C 16_16 0cm 23% 16mph 26mph 1009mB
0:00 4288m 14°C 14_11 0cm 16% 11mph 21mph 1009mB
3:00 4152m 7°C 7_7 0cm 5% 7mph 8mph 1013mB
6:00 4066m 6°C 6_8 0cm 3% 8mph 12mph 1015mB
9:00 3991m 5°C 5_8 0cm 0% 8mph 12mph 1016mB
12:00 3794m 6°C 6_7 0cm 0% 7mph 7mph 1019mB
15:00 3391m 7°C 7_3 0cm 0% 3mph 4mph 1021mB
18:00 3694m 14°C 14_1 0cm 1% 1mph 12mph 1020mB
21:00 3960m 14°C 14_3 0cm 0% 3mph 14mph 1017mB
0:00 3746m 9°C 9_8 0cm 0% 8mph 8mph 1019mB
3:00 3431m 3°C 3_3 0cm 44% 3mph 4mph 1024mB
6:00 3120m 2°C 2_3 0cm 69% 3mph 4mph 1025mB
9:00 3176m 0°C 0_3 0cm 75% 3mph 4mph 1024mB
12:00 3351m 2°C 2_5 0cm 56% 5mph 6mph 1023mB
15:00 3650m 8°C 8_5 0cm 36% 5mph 11mph 1022mB
18:00 3885m 14°C 14_8 0cm 18% 8mph 15mph 1018mB
21:00 4104m 13°C 13_12 0cm 0% 12mph 18mph 1014mB
0:00 4118m 12°C 12_9 0cm 0% 9mph 16mph 1014mB
3:00 4138m 6°C 6_10 0cm 55% 10mph 17mph 1017mB
6:00 4169m 4°C 4_10 0cm 42% 10mph 17mph 1017mB
9:00 4339m 4°C 4_10 0cm 93% 10mph 26mph 1017mB
12:00 3921m 4°C 4_10 0cm 87% 10mph 15mph 1018mB
15:00 3912m 9°C 9_9 0cm 81% 9mph 19mph 1018mB
18:00 4023m 15°C 15_12 0cm 88% 12mph 24mph 1014mB
21:00 4330m 15°C 15_16 0cm 13% 16mph 28mph 1011mB
0:00 4266m 13°C 13_6 0cm 35% 6mph 14mph 1013mB
3:00 4048m 5°C 5_2 0cm 28% 2mph 2mph 1019mB
6:00 4135m 3°C 3_4 0cm 15% 4mph 5mph 1021mB
9:00 4317m 3°C 3_6 0cm 62% 6mph 8mph 1020mB
12:00 4491m 4°C 4_8 0cm 59% 8mph 9mph 1020mB
15:00 4566m 11°C 11_9 0cm 43% 9mph 18mph 1018mB
18:00 4440m 18°C 18_13 0cm 29% 13mph 25mph 1014mB
21:00 4620m 18°C 18_16 0cm 0% 16mph 27mph 1010mB
0:00 4592m 16°C 16_8 0cm 0% 8mph 20mph 1011mB
3:00 4718m 9°C 9_10 0cm 0% 10mph 15mph 1017mB
6:00 4746m 8°C 8_10 0cm 0% 10mph 15mph 1019mB
9:00 4681m 7°C 7_8 0cm 0% 8mph 9mph 1020mB
12:00 4716m 8°C 8_8 0cm 0% 8mph 9mph 1021mB
15:00 4717m 13°C 13_7 0cm 4% 7mph 10mph 1020mB
18:00 4625m 20°C 20_8 0cm 2% 8mph 16mph 1016mB
21:00 4803m 20°C 20_10 0cm 24% 10mph 16mph 1012mB
0:00 4818m 18°C 18_8 0cm 12% 8mph 18mph 1012mB
3:00 4943m 11°C 11_10 0cm 22% 10mph 24mph 1016mB
6:00 5054m 10°C 10_10 0cm 25% 10mph 18mph 1016mB
9:00 4834m 13°C 13_4 0cm 0% 4mph 6mph 1015mB
12:00 4784m 15°C 15_6 0cm 4% 6mph 8mph 1015mB
15:00 4723m 22°C 22_4 0cm 5% 4mph 6mph 1014mB
18:00 4616m 30°C 30_4 0cm 3% 4mph 9mph 1010mB
21:00 4653m 30°C 30_7 0cm 0% 7mph 13mph 1006mB
0:00 4696m 28°C 28_3 0cm 37% 3mph 4mph 1005mB
3:00 4639m 22°C 22_11 0cm 9% 11mph 18mph 1007mB
6:00 4648m 19°C 19_7 0cm 21% 7mph 9mph 1007mB
9:00 4338m 16°C 16_6 0cm 67% 6mph 8mph 1008mB
12:00 3934m 20°C 20_2 0cm 34% 2mph 3mph 1011mB
15:00 4323m 19°C 19_1 0cm 0% 1mph 1mph 1014mB
18:00 3826m 23°C 23_7 0cm 0% 7mph 10mph 1012mB
21:00 4183m 23°C 23_12 0cm 0% 12mph 13mph 1009mB
0:00 4379m 23°C 23_13 0cm 0% 13mph 19mph 1009mB
3:00 4415m 16°C 16_5 0cm 22% 5mph 8mph 1013mB
6:00 4448m 13°C 13_5 0cm 15% 5mph 7mph 1013mB
9:00 4523m 11°C 11_4 0cm 10% 4mph 5mph 1011mB
12:00 4630m 15°C 15_9 0cm 13% 9mph 11mph 1010mB
15:00 4256m 21°C 21_9 0cm 67% 9mph 13mph 1010mB
18:00 4134m 26°C 26_4 0cm 83% 4mph 18mph 1008mB
Morning 0.322917mm 0 4071m 12°C 12_8 0cm 97% 8mph 11mph 1020mB
Afternoon 0.0572917mm 0 4086m 16°C 16_12 0cm 74% 12mph 12mph 1021mB
Morning 0.0260417mm 0 4205m 12°C 12_3 0cm 60% 3mph 5mph 1021mB
Afternoon 0.3125mm 0 3989m 15°C 15_10 0cm 28% 10mph 11mph 1020mB
Morning 0.572917mm 0.625 3831m 10°C 10_4 0cm 89% 4mph 6mph 1021mB
Afternoon 0.28125mm 4 3587m 19°C 19_7 0cm 45% 7mph 8mph 1017mB
Morning 0.0208333mm 0 3663m 13°C 13_8 0cm 27% 8mph 10mph 1018mB
Afternoon 0.00520833mm 0 3793m 21°C 21_6 0cm 0% 6mph 4mph 1014mB
Morning 0.0520833mm 0 3865m 14°C 14_6 0cm 16% 6mph 7mph 1016mB
Afternoon 0.078125mm 0 3883m 20°C 20_8 0cm 41% 8mph 7mph 1013mB
Morning 0.015625mm 0 3940m 13°C 13_2 0cm 37% 2mph 2mph 1016mB
Afternoon 0.0208333mm 0 4009m 23°C 23_3 0cm 0% 3mph 4mph 1011mB

16 day outlook at a glance

Forecast issued: 23/09/2018 05:24:31

Chat

Your comments and questions. In a resort? Let us know what it's like!


Characters left 250

For terms and conditions see Readers Comments on the Cookie and privacy policy page.